Location: Palmerston North
(40.3500°S, 175.6170°E)
Time: 10:43:24
(UTC+13:00)

Cosmos 1763 Rocket - Pass Details

Date: 24 January 2019
Orbit: 733 x 780 km, 74.0° (Epoch: 17 February)

Event Time Altitude Azimuth Distance (km) Brightness Sun altitude
Rises 22:23:16 0° 205° (SSW) 3,264 8.1 -16.3°
Reaches altitude 10° 22:25:43 10° 209° (SSW) 2,323 7.2 -16.7°
Maximum altitude 22:30:50 52° 284° (WNW) 943 4.1 -17.4°
Enters shadow 22:34:29 18° 354° (N) 1,784 5.0 -17.8°
